Shelton, WA
on Thursday, January 3, 2013

Thursday
Previous Day Next Day
Daily Summary
 ActualAverage (KOLM)Record (KOLM)
Temperature
Mean Temperature °F 39°F  
Max Temperature 39°F 44°F 59°F (1984)
Min Temperature 19°F 33°F 5°F (1950)
Degree Days
Heating Degree Days 36 26  
Month to date heating degree days 78  
Since 1 July heating degree days 2348  
Cooling Degree Days 0 0  
Month to date cooling degree days 0  
Year to date cooling degree days 0  
Moisture
Dew Point 29°F   
Average Humidity 92    
Maximum Humidity 100    
Minimum Humidity 65    
Precipitation
Precipitation 0.31 in 0.25 in 1.60 in (1984)
Month to date precipitation 0.75  
Year to date precipitation 0.75  
Wind
Wind Speed 1 mph   
Max Wind Speed 7 mph   
Max Gust Speed mph   
Visibility 9 miles   
Events Rain   

Key: T is trace of precipitation, MM is missing value
Source: NWS Daily Summary
Time(PST)TemperatureDew PointHumidity Pressure Visibility Wind DirectionWind SpeedGust SpeedPrecipitationEvents Conditions
12:24 AM 24.8°F 24.8°F 100% 30.17 in 4.0 miles Calm Calm - N/A   Partly Cloudy
12:53 AM 24.1°F 23.0°F 96% 30.19 in 1.5 miles Calm Calm - N/A   Mostly Cloudy
1:11 AM 24.8°F 21.2°F 86% 30.17 in 3.0 miles Calm Calm - N/A   Mostly Cloudy
1:29 AM 24.8°F 23.0°F 93% 30.16 in 2.5 miles Calm Calm - N/A   Mostly Cloudy
1:33 AM 24.8°F 23.0°F 93% 30.16 in 5.0 miles Calm Calm - N/A   Scattered Clouds
1:53 AM 24.1°F 23.0°F 96% 30.18 in 10.0 miles Calm Calm - N/A   Clear
2:53 AM 24.1°F 23.0°F 96% 30.18 in 10.0 miles Calm Calm - N/A   Clear
3:53 AM 24.1°F 21.9°F 91% 30.18 in 10.0 miles Calm Calm - N/A   Clear
4:53 AM 24.1°F 23.0°F 96% 30.16 in 10.0 miles NNE 3.5 mph - N/A   Clear
5:53 AM 21.9°F 19.9°F 92% 30.14 in 10.0 miles Calm Calm - N/A   Clear
6:53 AM 23.0°F 21.0°F 92% 30.13 in 10.0 miles Calm Calm - N/A   Clear
7:53 AM 19.9°F 18.0°F 92% 30.12 in 10.0 miles Calm Calm - N/A   Clear
8:53 AM 21.9°F 21.0°F 96% 30.14 in 10.0 miles Calm Calm - N/A   Clear
9:53 AM 28.9°F 28.0°F 96% 30.15 in 10.0 miles NNE 3.5 mph - N/A   Clear
10:53 AM 32.0°F 30.9°F 96% 30.15 in 10.0 miles NNE 3.5 mph - N/A   Clear
11:53 AM 37.9°F 30.9°F 76% 30.13 in 10.0 miles Calm Calm - N/A   Clear
12:53 PM 39.9°F 28.9°F 65% 30.12 in 10.0 miles Calm Calm - N/A   Clear
1:53 PM 39.0°F 32.0°F 76% 30.12 in 10.0 miles Calm Calm - N/A   Clear
2:53 PM 37.9°F 30.0°F 73% 30.12 in 10.0 miles Calm Calm - N/A   Overcast
3:53 PM 35.6°F 30.2°F 81% 30.10 in 10.0 miles NNW 4.6 mph - N/A   Overcast
4:53 PM 36.0°F 30.9°F 82% 30.11 in 10.0 miles North 3.5 mph - 0.00 in   Overcast
5:53 PM 34.0°F 32.0°F 92% 30.12 in 10.0 miles North 6.9 mph - 0.08 in Rain Light Rain
6:53 PM 33.1°F 33.1°F 100% 30.12 in 10.0 miles North 4.6 mph - 0.08 in Rain Light Rain
7:26 PM 33.8°F 33.8°F 100% 30.10 in 10.0 miles NE 3.5 mph - 0.01 in Rain Light Rain
7:53 PM 34.0°F 33.1°F 96% 30.12 in 10.0 miles NNE 3.5 mph - 0.02 in Rain Rain
8:53 PM 34.0°F 34.0°F 100% 30.13 in 10.0 miles North 3.5 mph - 0.05 in   Overcast
9:53 PM 35.1°F 35.1°F 100% 30.13 in 10.0 miles North 3.5 mph - 0.02 in Rain Light Rain
10:06 PM 35.6°F 35.6°F 100% 30.11 in 10.0 miles North 3.5 mph - 0.01 in Rain Light Rain
10:27 PM 35.6°F 35.6°F 100% 30.12 in 10.0 miles North 3.5 mph - 0.03 in Rain Light Rain
10:53 PM 36.0°F 35.1°F 97% 30.14 in 10.0 miles North 3.5 mph - 0.04 in   Overcast
11:09 PM 35.6°F 35.6°F 100% 30.13 in 10.0 miles Calm Calm - 0.01 in   Overcast
11:36 PM 35.6°F 35.6°F 100% 30.14 in 8.0 miles Calm Calm - 0.02 in   Overcast
11:53 PM 35.1°F 35.1°F 100% 30.16 in 9.0 miles Calm Calm - 0.02 in Rain Light Rain
Moon Phase
Jan. 03 Jan. 04 Jan. 11 Jan. 18 Jan. 26
Sunrise:07:59 AM (PST) Moon Rise:11:46 PM (PST)1/3
Sunset:04:35 PM (PST) Moon Set:10:46 AM (PST)1/3

Copyright © 2014 The Weather Underground, Inc.